QPF
0.04 0.06 0.04 0.05 0.07 0.09 0.09 0.09 0.08 0.09 0.11 0.10 0.08 0.08 0.07 0.07 0.06 0.04 0.04 0.05 0.05 0.05 0.05 0.05 0.05 0.05 0.05 0.05 0.06 0.06 0.04 0.05 0.04 0.04 0.04 0.03 0.03 0.02 0.02 0.02 0.02 0.03 0.02
0.04 0.07 0.08 0.08 0.08 0.09 0.09 0.09 0.09 0.09 0.10 0.13 0.13 0.09 0.07 0.08 0.09 0.08 0.07 0.08 0.08 0.06 0.06 0.05 0.05 0.06 0.07 0.06 0.06 0.06 0.06 0.06 0.06 0.05 0.04 0.03 0.02 0.02 0.02 0.03 0.03 0.03 0.03
0.03 0.05 0.04 0.04 0.03 0.04 0.07 0.08 0.09 0.10 0.09 0.08 0.10 0.10 0.08 0.12 0.16 0.16 0.16 0.13 0.10 0.07 0.05 0.05 0.04 0.05 0.05 0.05 0.05 0.04 0.04 0.04 0.04 0.04 0.05 0.04 0.04 0.03 0.03 0.03 0.03 0.03 0.03
0.03 0.04 0.04 0.03 0.03 0.03 0.04 0.04 0.04 0.05 0.06 0.05 0.05 0.06 0.08 0.09 0.08 0.09 0.07 0.06 0.05 0.05 0.05 0.04 0.04 0.03 0.03 0.03 0.02 0.02 0.02 0.02 0.02 0.02 0.03 0.03 0.03 0.02 0.02 0.03 0.03 0.02 0.02
0.02 0.02 0.03 0.04 0.05 0.05 0.04 0.04 0.04 0.03 0.02 0.03 0.04 0.04 0.05 0.06 0.05 0.06 0.05 0.03 0.03 0.03 0.04 0.03 0.03 0.02 0.02 0.01 0.01 0.01 0.01 0.02 0.02 0.02 0.01 0.02 0.02 0.03 0.03 0.02 0.02 0.02 0.01
0.04 0.03 0.04 0.05 0.08 0.09 0.06 0.03 0.02 0.02 0.02 0.02 0.02 0.03 0.03 0.05 0.06 0.07 0.06 0.04 0.02 0.02 0.02 0.02 0.02 0.02 0.02 0.02 0.01 0.01 0.01 0.01 0.01 0.01 0.01 0.01 0.01 0.01 0.02 0.03 0.02 0.01 0.01
0.05 0.04 0.05 0.07 0.07 0.06 0.04 0.02 0.01 0.01 0.01 0.01 0.01 0.01 0.01 0.03 0.04 0.05 0.07 0.06 0.03 0.02 0.02 0.02 0.02 0.02 0.02 0.02 0.02 0.01 0.01 0.01 0.01 0.01 0.01 0.00 0.00 0.01 0.01 0.01 0.02 0.02 0.01
0.04 0.04 0.04 0.05 0.05 0.03 0.02 0.01 0.01 0.00 0.00 0.00 0.00 0.01 0.01 0.01 0.02 0.03 0.04 0.06 0.05 0.03 0.02 0.03 0.04 0.04 0.04 0.03 0.03 0.02 0.02 0.01 0.01 0.01 0.00 0.00 0.00 0.01 0.01 0.01 0.01 0.01 0.02
0.04 0.03 0.04 0.03 0.03 0.01 0.01 0.01 0.01 0.01 0.01 0.00 0.00 0.00 0.01 0.01 0.01 0.02 0.04 0.03 0.04 0.05 0.04 0.05 0.06 0.05 0.05 0.05 0.04 0.04 0.04 0.03 0.03 0.03 0.02 0.01 0.01 0.01 0.01 0.01 0.01 0.01 0.02
0.03 0.03 0.03 0.02 0.02 0.02 0.01 0.01 0.01 0.01 0.01 0.01 0.00 0.00 0.01 0.01 0.02 0.02 0.04 0.04 0.03 0.04 0.04 0.04 0.04 0.05 0.06 0.08 0.07 0.06 0.05 0.04 0.04 0.03 0.03 0.02 0.02 0.01 0.01 0.01 0.01 0.02 0.03
0.04 0.04 0.04 0.04 0.04 0.04 0.04 0.03 0.02 0.01 0.01 0.01 0.00 0.00 0.00 0.01 0.01 0.01 0.02 0.02 0.02 0.01 0.02 0.02 0.02 0.02 0.02 0.04 0.05 0.05 0.06 0.05 0.05 0.05 0.04 0.03 0.02 0.01 0.01 0.01 0.01 0.02 0.02
0.05 0.05 0.05 0.05 0.05 0.05 0.04 0.04 0.04 0.03 0.02 0.01 0.01 0.01 0.01 0.01 0.01 0.02 0.02 0.01 0.01 0.01 0.01 0.01 0.02 0.02 0.02 0.03 0.05 0.06 0.05 0.05 0.05 0.06 0.06 0.06 0.04 0.02 0.02 0.01 0.01 0.01 0.01
0.07 0.06 0.06 0.06 0.06 0.05 0.06 0.04 0.04 0.06 0.05 0.03 0.02 0.01 0.01 0.01 0.01 0.02 0.03 0.02 0.02 0.01 0.01 0.01 0.02 0.02 0.02 0.02 0.03 0.04 0.05 0.06 0.05 0.04 0.04 0.05 0.05 0.04 0.03 0.02 0.02 0.01 0.01
0.10 0.10 0.09 0.08 0.08 0.07 0.07 0.07 0.05 0.05 0.05 0.04 0.03 0.02 0.02 0.01 0.01 0.01 0.01 0.02 0.02 0.02 0.02 0.02 0.03 0.03 0.02 0.02 0.02 0.02 0.03 0.04 0.04 0.04 0.03 0.03 0.04 0.05 0.05 0.04 0.03 0.02 0.01
0.09 0.11 0.11 0.10 0.09 0.09 0.08 0.09 0.09 0.08 0.05 0.05 0.03 0.02 0.02 0.01 0.01 0.01 0.01 0.02 0.02 0.02 0.02 0.02 0.02 0.02 0.02 0.03 0.02 0.01 0.02 0.02 0.03 0.03 0.03 0.03 0.04 0.04 0.05 0.05 0.05 0.04 0.03
0.07 0.06 0.08 0.08 0.06 0.05 0.06 0.06 0.05 0.05 0.04 0.03 0.02 0.01 0.01 0.01 0.01 0.01 0.01 0.02 0.02 0.03 0.03 0.02 0.02 0.02 0.03 0.02 0.02 0.02 0.01 0.02 0.02 0.03 0.03 0.03 0.04 0.04 0.04 0.04 0.05 0.06 0.05
0.06 0.05 0.05 0.06 0.06 0.06 0.05 0.05 0.04 0.03 0.02 0.02 0.01 0.01 0.01 0.01 0.01 0.01 0.01 0.01 0.01 0.02 0.02 0.02 0.02 0.02 0.03 0.03 0.03 0.02 0.02 0.01 0.01 0.02 0.03 0.03 0.03 0.04 0.04 0.04 0.04 0.05 0.07
0.06 0.06 0.05 0.05 0.06 0.05 0.06 0.05 0.04 0.03 0.02 0.02 0.02 0.02 0.01 0.01 0.01 0.01 0.01 0.01 0.01 0.02 0.02 0.02 0.01 0.02 0.03 0.03 0.03 0.03 0.03 0.02 0.02 0.02 0.03 0.04 0.04 0.04 0.04 0.04 0.05 0.05 0.04
0.06 0.06 0.05 0.06 0.06 0.05 0.05 0.05 0.05 0.05 0.03 0.02 0.02 0.03 0.03 0.03 0.03 0.03 0.02 0.02 0.02 0.02 0.02 0.02 0.01 0.02 0.03 0.04 0.04 0.05 0.04 0.03 0.03 0.03 0.03 0.03 0.04 0.04 0.04 0.04 0.04 0.04 0.03
0.04 0.04 0.05 0.05 0.05 0.04 0.04 0.04 0.05 0.05 0.03 0.03 0.03 0.03 0.03 0.04 0.04 0.04 0.04 0.03 0.03 0.03 0.03 0.03 0.02 0.02 0.03 0.03 0.04 0.04 0.04 0.04 0.04 0.05 0.04 0.04 0.04 0.05 0.05 0.04 0.03 0.03 0.03
0.02 0.02 0.03 0.03 0.03 0.03 0.03 0.03 0.03 0.03 0.03 0.03 0.03 0.03 0.03 0.03 0.03 0.03 0.03 0.04 0.03 0.03 0.04 0.03 0.03 0.03 0.03 0.03 0.03 0.04 0.04 0.03 0.04 0.05 0.06 0.06 0.05 0.05 0.06 0.06 0.05 0.04 0.04
0.02 0.01 0.02 0.02 0.02 0.02 0.02 0.02 0.02 0.02 0.02 0.02 0.02 0.03 0.03 0.03 0.03 0.03 0.03 0.03 0.03 0.03 0.04 0.04 0.04 0.03 0.02 0.02 0.02 0.03 0.04 0.04 0.05 0.06 0.07 0.07 0.08 0.08 0.07 0.06 0.05 0.05 0.05
0.01 0.01 0.01 0.02 0.02 0.02 0.02 0.01 0.01 0.01 0.01 0.01 0.01 0.01 0.02 0.03 0.03 0.03 0.04 0.03 0.02 0.02 0.02 0.02 0.03 0.03 0.02 0.02 0.02 0.02 0.03 0.04 0.04 0.05 0.05 0.06 0.07 0.07 0.06 0.06 0.04 0.04 0.04
0.01 0.01 0.01 0.01 0.01 0.02 0.02 0.02 0.02 0.02 0.02 0.02 0.01 0.01 0.01 0.02 0.03 0.03 0.03 0.03 0.02 0.02 0.02 0.02 0.02 0.02 0.03 0.03 0.03 0.02 0.02 0.03 0.04 0.04 0.05 0.06 0.06 0.05 0.05 0.04 0.04 0.03 0.03
0.01 0.01 0.01 0.01 0.01 0.00 0.01 0.01 0.01 0.01 0.02 0.02 0.01 0.01 0.02 0.04 0.03 0.02 0.02 0.02 0.02 0.02 0.02 0.03 0.03 0.03 0.03 0.03 0.03 0.04 0.04 0.03 0.03 0.03 0.04 0.04 0.05 0.05 0.04 0.04 0.03 0.03 0.03
0.01 0.01 0.01 0.01 0.01 0.01 0.01 0.01 0.01 0.01 0.01 0.01 0.01 0.02 0.04 0.03 0.02 0.01 0.01 0.01 0.02 0.02 0.02 0.03 0.03 0.04 0.04 0.03 0.02 0.03 0.03 0.03 0.02 0.02 0.02 0.02 0.02 0.03 0.03 0.03 0.03 0.03 0.02
MSLP
1009.67 1010.59 1011.47 1012.25 1012.93 1013.51 1014.00 1014.44 1014.86 1015.29 1015.74 1016.21 1016.66 1017.07 1017.40 1017.64 1017.77 1017.81 1017.78 1017.72 1017.66 1017.62 1017.63 1017.68 1017.75 1017.80 1017.83 1017.78 1017.66 1017.44 1017.15 1016.78 1016.39 1015.97 1015.57 1015.19 1014.85 1014.55 1014.30 1014.11 1013.97 1013.89 1013.88
1008.88 1009.90 1010.87 1011.76 1012.53 1013.18 1013.74 1014.23 1014.69 1015.15 1015.60 1016.07 1016.52 1016.93 1017.27 1017.52 1017.67 1017.74 1017.74 1017.70 1017.66 1017.62 1017.62 1017.65 1017.68 1017.71 1017.70 1017.64 1017.50 1017.29 1017.02 1016.70 1016.36 1016.00 1015.66 1015.33 1015.02 1014.74 1014.48 1014.25 1014.06 1013.91 1013.82
1008.08 1009.20 1010.28 1011.26 1012.12 1012.86 1013.49 1014.04 1014.54 1015.03 1015.50 1015.97 1016.42 1016.83 1017.18 1017.44 1017.61 1017.70 1017.73 1017.71 1017.68 1017.66 1017.64 1017.65 1017.65 1017.64 1017.59 1017.50 1017.35 1017.14 1016.89 1016.61 1016.32 1016.02 1015.73 1015.46 1015.19 1014.93 1014.68 1014.43 1014.19 1013.98 1013.82
1007.33 1008.52 1009.68 1010.76 1011.72 1012.54 1013.25 1013.86 1014.42 1014.95 1015.45 1015.94 1016.40 1016.81 1017.16 1017.43 1017.61 1017.72 1017.77 1017.77 1017.74 1017.72 1017.69 1017.67 1017.64 1017.59 1017.51 1017.39 1017.22 1017.01 1016.77 1016.52 1016.26 1016.01 1015.78 1015.55 1015.33 1015.09 1014.85 1014.59 1014.34 1014.08 1013.85
1006.63 1007.88 1009.10 1010.25 1011.28 1012.19 1012.98 1013.68 1014.31 1014.89 1015.44 1015.96 1016.44 1016.87 1017.22 1017.50 1017.69 1017.80 1017.85 1017.86 1017.84 1017.81 1017.77 1017.73 1017.67 1017.59 1017.47 1017.32 1017.12 1016.90 1016.66 1016.42 1016.19 1015.97 1015.78 1015.59 1015.40 1015.19 1014.96 1014.71 1014.44 1014.16 1013.89
1006.00 1007.27 1008.53 1009.72 1010.81 1011.79 1012.67 1013.46 1014.17 1014.84 1015.45 1016.02 1016.54 1016.99 1017.35 1017.64 1017.83 1017.95 1017.99 1018.00 1017.98 1017.94 1017.89 1017.83 1017.74 1017.64 1017.49 1017.31 1017.09 1016.86 1016.61 1016.37 1016.14 1015.93 1015.75 1015.58 1015.40 1015.21 1014.99 1014.75 1014.47 1014.18 1013.89
1005.47 1006.71 1007.96 1009.17 1010.31 1011.36 1012.32 1013.20 1014.01 1014.76 1015.46 1016.09 1016.66 1017.14 1017.53 1017.82 1018.01 1018.12 1018.17 1018.18 1018.15 1018.10 1018.05 1017.98 1017.89 1017.76 1017.60 1017.40 1017.17 1016.91 1016.65 1016.39 1016.14 1015.92 1015.73 1015.54 1015.36 1015.17 1014.96 1014.71 1014.43 1014.13 1013.82
1005.03 1006.22 1007.44 1008.65 1009.80 1010.90 1011.93 1012.90 1013.80 1014.66 1015.44 1016.15 1016.78 1017.30 1017.71 1018.01 1018.22 1018.33 1018.38 1018.39 1018.36 1018.32 1018.27 1018.21 1018.12 1018.00 1017.84 1017.63 1017.39 1017.11 1016.82 1016.53 1016.26 1016.00 1015.77 1015.55 1015.34 1015.11 1014.87 1014.60 1014.31 1014.00 1013.68
1004.71 1005.83 1007.00 1008.18 1009.34 1010.47 1011.55 1012.60 1013.60 1014.54 1015.41 1016.20 1016.88 1017.44 1017.89 1018.21 1018.42 1018.55 1018.61 1018.62 1018.61 1018.60 1018.57 1018.53 1018.46 1018.36 1018.21 1018.01 1017.77 1017.48 1017.17 1016.84 1016.53 1016.22 1015.92 1015.65 1015.37 1015.09 1014.81 1014.50 1014.18 1013.84 1013.50
1004.52 1005.57 1006.68 1007.83 1008.98 1010.13 1011.27 1012.38 1013.45 1014.46 1015.41 1016.25 1016.98 1017.58 1018.05 1018.40 1018.63 1018.77 1018.85 1018.89 1018.91 1018.93 1018.94 1018.93 1018.91 1018.84 1018.72 1018.55 1018.31 1018.02 1017.69 1017.33 1016.97 1016.60 1016.24 1015.88 1015.53 1015.18 1014.83 1014.46 1014.08 1013.70 1013.33
1004.47 1005.46 1006.53 1007.64 1008.78 1009.95 1011.11 1012.27 1013.39 1014.46 1015.46 1016.34 1017.11 1017.74 1018.23 1018.59 1018.84 1019.01 1019.11 1019.19 1019.26 1019.32 1019.38 1019.42 1019.45 1019.42 1019.35 1019.20 1018.98 1018.70 1018.36 1017.98 1017.57 1017.15 1016.72 1016.29 1015.86 1015.42 1014.99 1014.54 1014.10 1013.65 1013.22
1004.55 1005.51 1006.54 1007.64 1008.78 1009.96 1011.14 1012.33 1013.48 1014.58 1015.60 1016.51 1017.29 1017.93 1018.43 1018.81 1019.08 1019.27 1019.41 1019.52 1019.63 1019.74 1019.85 1019.95 1020.03 1020.06 1020.03 1019.92 1019.73 1019.46 1019.13 1018.73 1018.30 1017.84 1017.35 1016.86 1016.36 1015.85 1015.33 1014.80 1014.28 1013.76 1013.26
1004.72 1005.68 1006.72 1007.82 1008.97 1010.15 1011.36 1012.56 1013.72 1014.83 1015.85 1016.76 1017.54 1018.17 1018.68 1019.06 1019.34 1019.55 1019.72 1019.88 1020.03 1020.18 1020.34 1020.48 1020.61 1020.68 1020.69 1020.62 1020.46 1020.22 1019.91 1019.52 1019.08 1018.60 1018.10 1017.56 1017.01 1016.44 1015.86 1015.26 1014.66 1014.06 1013.48
1004.93 1005.92 1006.98 1008.10 1009.28 1010.49 1011.71 1012.92 1014.09 1015.19 1016.20 1017.09 1017.85 1018.47 1018.97 1019.35 1019.64 1019.86 1020.05 1020.23 1020.41 1020.60 1020.79 1020.97 1021.12 1021.23 1021.27 1021.23 1021.11 1020.90 1020.62 1020.26 1019.85 1019.38 1018.88 1018.34 1017.77 1017.17 1016.55 1015.90 1015.24 1014.57 1013.90
1005.10 1006.15 1007.26 1008.42 1009.64 1010.88 1012.12 1013.34 1014.51 1015.60 1016.59 1017.46 1018.20 1018.80 1019.28 1019.65 1019.94 1020.17 1020.37 1020.57 1020.76 1020.96 1021.16 1021.36 1021.53 1021.65 1021.72 1021.70 1021.61 1021.45 1021.20 1020.90 1020.53 1020.10 1019.64 1019.13 1018.58 1017.98 1017.35 1016.68 1015.97 1015.24 1014.51
1005.16 1006.28 1007.45 1008.67 1009.94 1011.22 1012.48 1013.72 1014.89 1015.98 1016.95 1017.80 1018.52 1019.10 1019.57 1019.93 1020.22 1020.45 1020.65 1020.84 1021.04 1021.24 1021.44 1021.63 1021.79 1021.92 1022.00 1022.01 1021.95 1021.82 1021.63 1021.38 1021.07 1020.71 1020.31 1019.85 1019.35 1018.79 1018.18 1017.51 1016.79 1016.03 1015.23
1005.08 1006.27 1007.51 1008.80 1010.11 1011.43 1012.73 1013.98 1015.16 1016.25 1017.22 1018.05 1018.76 1019.33 1019.78 1020.14 1020.43 1020.66 1020.86 1021.05 1021.24 1021.42 1021.61 1021.78 1021.94 1022.06 1022.14 1022.16 1022.14 1022.05 1021.91 1021.72 1021.48 1021.20 1020.86 1020.48 1020.03 1019.53 1018.96 1018.32 1017.61 1016.84 1016.01
1004.86 1006.11 1007.42 1008.76 1010.12 1011.48 1012.81 1014.09 1015.28 1016.37 1017.34 1018.17 1018.87 1019.45 1019.91 1020.27 1020.55 1020.79 1020.99 1021.17 1021.35 1021.52 1021.69 1021.85 1021.99 1022.11 1022.19 1022.23 1022.23 1022.18 1022.09 1021.95 1021.78 1021.56 1021.29 1020.97 1020.59 1020.15 1019.62 1019.02 1018.34 1017.57 1016.73
1004.56 1005.86 1007.21 1008.59 1009.99 1011.38 1012.73 1014.03 1015.23 1016.33 1017.30 1018.15 1018.86 1019.45 1019.92 1020.29 1020.59 1020.84 1021.04 1021.23 1021.40 1021.57 1021.72 1021.88 1022.01 1022.13 1022.22 1022.27 1022.29 1022.28 1022.22 1022.13 1022.00 1021.83 1021.61 1021.34 1021.01 1020.60 1020.12 1019.55 1018.90 1018.15 1017.32
1004.25 1005.58 1006.96 1008.36 1009.78 1011.19 1012.55 1013.85 1015.06 1016.17 1017.15 1018.01 1018.74 1019.34 1019.84 1020.24 1020.56 1020.83 1021.05 1021.25 1021.43 1021.60 1021.76 1021.92 1022.06 1022.18 1022.29 1022.36 1022.40 1022.41 1022.38 1022.31 1022.21 1022.05 1021.85 1021.59 1021.28 1020.89 1020.43 1019.89 1019.26 1018.54 1017.73
1004.01 1005.36 1006.74 1008.16 1009.57 1010.97 1012.33 1013.62 1014.83 1015.94 1016.93 1017.81 1018.55 1019.19 1019.72 1020.15 1020.51 1020.80 1021.05 1021.28 1021.48 1021.67 1021.85 1022.02 1022.18 1022.33 1022.45 1022.54 1022.60 1022.62 1022.60 1022.53 1022.42 1022.25 1022.03 1021.76 1021.42 1021.03 1020.56 1020.03 1019.41 1018.71 1017.93
1003.92 1005.26 1006.64 1008.03 1009.42 1010.80 1012.14 1013.41 1014.61 1015.71 1016.71 1017.60 1018.37 1019.03 1019.59 1020.07 1020.47 1020.80 1021.10 1021.36 1021.59 1021.82 1022.03 1022.23 1022.41 1022.59 1022.73 1022.84 1022.91 1022.93 1022.90 1022.81 1022.66 1022.46 1022.18 1021.86 1021.47 1021.03 1020.54 1019.99 1019.37 1018.69 1017.94
1003.99 1005.32 1006.67 1008.03 1009.39 1010.73 1012.03 1013.27 1014.44 1015.53 1016.53 1017.42 1018.22 1018.92 1019.53 1020.04 1020.49 1020.88 1021.22 1021.52 1021.80 1022.06 1022.30 1022.54 1022.75 1022.95 1023.11 1023.23 1023.30 1023.32 1023.26 1023.13 1022.93 1022.66 1022.32 1021.92 1021.46 1020.96 1020.41 1019.83 1019.20 1018.52 1017.79
1004.22 1005.52 1006.83 1008.15 1009.46 1010.74 1011.99 1013.20 1014.34 1015.41 1016.41 1017.32 1018.15 1018.88 1019.53 1020.10 1020.60 1021.04 1021.43 1021.78 1022.10 1022.39 1022.67 1022.93 1023.16 1023.37 1023.55 1023.67 1023.73 1023.72 1023.63 1023.46 1023.20 1022.85 1022.43 1021.95 1021.42 1020.84 1020.24 1019.61 1018.96 1018.28 1017.56
1004.57 1005.82 1007.08 1008.34 1009.59 1010.82 1012.02 1013.18 1014.30 1015.36 1016.35 1017.28 1018.14 1018.91 1019.62 1020.24 1020.80 1021.29 1021.73 1022.11 1022.47 1022.78 1023.08 1023.35 1023.60 1023.81 1023.97 1024.09 1024.13 1024.09 1023.97 1023.74 1023.42 1023.02 1022.53 1021.97 1021.37 1020.72 1020.07 1019.39 1018.71 1018.02 1017.30
1004.98 1006.17 1007.37 1008.56 1009.75 1010.92 1012.07 1013.19 1014.28 1015.33 1016.33 1017.28 1018.18 1019.00 1019.76 1020.44 1021.05 1021.59 1022.07 1022.49 1022.86 1023.19 1023.49 1023.76 1023.99 1024.19 1024.33 1024.42 1024.44 1024.37 1024.21 1023.95 1023.59 1023.14 1022.60 1021.99 1021.33 1020.64 1019.93 1019.22 1018.51 1017.80 1017.08
Thickness
5710 5709 5707 5705 5702 5701 5699 5698 5696 5694 5693 5691 5689 5687 5685 5683 5682 5681 5679 5678 5676 5675 5674 5672 5671 5670 5668 5666 5665 5663 5661 5660 5660 5663 5662 5663 5663 5664 5665 5665 5664 5664 5664
5704 5702 5700 5699 5697 5695 5694 5692 5691 5689 5688 5686 5684 5682 5681 5679 5678 5676 5675 5674 5672 5671 5670 5668 5666 5665 5663 5661 5660 5659 5658 5657 5656 5656 5656 5656 5656 5657 5657 5657 5657 5657 5656
5698 5695 5693 5693 5691 5689 5689 5688 5686 5684 5682 5681 5679 5678 5676 5675 5673 5672 5671 5670 5668 5666 5665 5664 5662 5661 5658 5657 5655 5654 5653 5652 5651 5649 5649 5649 5649 5649 5648 5649 5649 5649 5649
5691 5689 5688 5687 5686 5684 5683 5682 5681 5679 5677 5675 5675 5673 5672 5670 5669 5668 5666 5665 5663 5662 5660 5659 5658 5656 5654 5652 5650 5648 5647 5646 5644 5643 5642 5641 5641 5641 5640 5640 5640 5641 5641
5686 5684 5683 5681 5680 5679 5677 5676 5675 5673 5672 5671 5669 5668 5667 5665 5665 5663 5661 5659 5658 5656 5655 5654 5653 5651 5650 5647 5646 5644 5642 5641 5639 5637 5636 5635 5634 5633 5633 5633 5633 5633 5633
5680 5679 5677 5675 5674 5673 5672 5669 5668 5667 5666 5665 5664 5663 5662 5661 5660 5658 5656 5654 5653 5651 5649 5648 5647 5645 5644 5642 5640 5639 5638 5636 5633 5631 5630 5629 5628 5627 5627 5626 5625 5624 5624
5674 5673 5670 5669 5667 5666 5666 5664 5662 5661 5660 5659 5658 5657 5656 5655 5654 5653 5652 5649 5647 5645 5643 5641 5640 5640 5637 5636 5634 5633 5631 5630 5629 5627 5625 5624 5623 5623 5621 5620 5618 5618 5618
5666 5665 5664 5662 5661 5659 5657 5656 5656 5655 5654 5653 5652 5651 5650 5649 5648 5647 5646 5643 5642 5640 5638 5636 5633 5632 5631 5629 5627 5626 5625 5624 5622 5621 5620 5620 5619 5617 5616 5615 5613 5612 5611
5659 5659 5658 5657 5654 5652 5651 5650 5650 5649 5647 5646 5646 5645 5644 5643 5642 5640 5639 5636 5635 5633 5632 5630 5628 5626 5624 5622 5620 5618 5618 5617 5616 5615 5614 5614 5612 5611 5609 5607 5606 5605 5606
5653 5653 5652 5651 5648 5647 5646 5645 5644 5643 5641 5640 5639 5639 5638 5637 5636 5634 5631 5630 5628 5627 5625 5624 5622 5620 5618 5616 5613 5612 5610 5610 5609 5609 5607 5607 5606 5605 5603 5602 5602 5601 5600
5646 5646 5646 5644 5643 5641 5640 5638 5637 5636 5635 5634 5632 5632 5632 5631 5630 5627 5625 5624 5622 5620 5619 5618 5616 5614 5612 5609 5607 5606 5605 5603 5601 5600 5600 5600 5599 5599 5598 5597 5596 5596 5596
5637 5638 5638 5638 5637 5636 5633 5632 5631 5629 5627 5626 5625 5625 5625 5624 5623 5621 5619 5617 5616 5614 5613 5612 5610 5608 5606 5603 5601 5600 5598 5595 5594 5593 5593 5593 5593 5593 5592 5591 5591 5590 5591
5630 5630 5630 5631 5629 5628 5627 5625 5624 5622 5621 5620 5619 5618 5618 5618 5617 5615 5613 5610 5609 5608 5607 5605 5603 5601 5599 5597 5595 5593 5591 5589 5588 5587 5587 5587 5587 5586 5585 5584 5584 5584 5584
5622 5622 5623 5622 5621 5622 5620 5618 5616 5615 5614 5614 5613 5613 5612 5612 5611 5609 5606 5604 5602 5600 5599 5597 5594 5593 5592 5591 5589 5587 5585 5583 5582 5581 5580 5580 5579 5578 5578 5578 5577 5578 5578
5613 5613 5613 5614 5613 5613 5611 5610 5610 5610 5610 5609 5608 5607 5606 5606 5606 5604 5601 5599 5597 5594 5591 5589 5588 5587 5586 5585 5583 5581 5579 5577 5575 5575 5573 5572 5572 5571 5571 5571 5571 5571 5571
5606 5605 5606 5605 5605 5605 5604 5603 5602 5603 5603 5602 5602 5601 5601 5601 5599 5597 5594 5592 5589 5586 5584 5584 5583 5582 5580 5579 5577 5576 5574 5572 5571 5569 5567 5566 5566 5566 5565 5564 5563 5564 5564
5600 5599 5599 5599 5599 5598 5598 5597 5596 5596 5595 5594 5594 5593 5593 5593 5592 5589 5587 5585 5582 5579 5578 5579 5577 5576 5574 5573 5571 5569 5569 5567 5565 5563 5562 5561 5560 5559 5558 5558 5557 5557 5557
5595 5594 5593 5593 5593 5593 5592 5592 5591 5590 5589 5588 5587 5586 5586 5585 5584 5582 5579 5577 5576 5574 5574 5573 5572 5570 5569 5567 5565 5564 5562 5560 5559 5558 5557 5555 5554 5553 5552 5552 5551 5551 5551
5590 5589 5588 5587 5586 5586 5586 5586 5585 5583 5582 5581 5581 5580 5579 5577 5576 5574 5572 5571 5571 5569 5568 5566 5565 5564 5562 5560 5559 5557 5556 5554 5553 5552 5551 5550 5548 5548 5547 5547 5546 5544 5544
5584 5584 5584 5582 5580 5579 5579 5579 5578 5577 5575 5574 5574 5573 5571 5570 5569 5567 5565 5564 5563 5562 5561 5560 5558 5557 5556 5554 5553 5551 5549 5548 5547 5546 5545 5544 5543 5542 5542 5542 5541 5541 5540
5578 5578 5577 5576 5574 5574 5573 5573 5572 5570 5569 5568 5567 5565 5563 5562 5562 5560 5559 5558 5556 5555 5554 5553 5551 5550 5548 5547 5546 5545 5543 5542 5541 5540 5539 5538 5538 5537 5537 5537 5536 5536 5536
5571 5572 5571 5570 5568 5568 5567 5567 5566 5564 5563 5561 5559 5558 5555 5555 5554 5553 5552 5550 5549 5548 5546 5545 5544 5543 5541 5540 5538 5537 5536 5535 5534 5533 5533 5533 5532 5532 5532 5532 5532 5531 5531
5565 5565 5564 5563 5561 5560 5560 5560 5558 5557 5555 5554 5552 5550 5549 5548 5546 5545 5543 5542 5540 5539 5539 5538 5537 5535 5534 5532 5531 5530 5529 5528 5526 5525 5525 5526 5526 5526 5526 5526 5526 5526 5526
5558 5557 5556 5555 5554 5553 5552 5551 5550 5549 5547 5546 5544 5542 5540 5539 5538 5537 5535 5534 5533 5532 5531 5529 5528 5528 5526 5525 5524 5522 5521 5520 5519 5518 5518 5518 5519 5519 5519 5519 5520 5520 5520
5551 5550 5549 5548 5547 5546 5544 5543 5542 5540 5539 5537 5536 5534 5533 5532 5530 5529 5527 5526 5525 5524 5523 5521 5520 5519 5518 5518 5517 5515 5514 5513 5511 5510 5510 5510 5511 5511 5511 5512 5512 5512 5513
5544 5543 5541 5540 5539 5538 5536 5535 5533 5532 5530 5529 5527 5526 5525 5524 5522 5521 5519 5518 5517 5516 5514 5513 5512 5511 5510 5510 5509 5508 5506 5505 5504 5503 5502 5503 5504 5504 5504 5504 5505 5505 5505